Tracking 30074 objects as of 13-Jan-2025
HD Live streaming from Space Station
objects crossing your sky now

STARLINK-5758

Track STARLINK-5758 now!
10-day predictions
STARLINK-5758 is classified as:


NORAD ID: 56037
Int'l Code: 2023-042BD
Perigee: 565.3 km
Apogee: 567.1 km
Inclination: 43.0 °
Period: 95.8 minutes
Semi major axis: 6937 km
RCS: Unknown
Launch date: March 24, 2022
Source: United States (US)
Launch site: AIR FORCE EASTERN TEST RANGE (AFETR)
Your satellite tracking list
Your tracking list is empty




NASA's NSSDC Master Catalog

Two Line Element Set (TLE):
1 56037U 23042BD  25013.43983562 -.00000042  00000-0  11997-4 0  9991
2 56037  43.0032 153.5752 0001312 267.2285  92.8407 15.02537360 99990
Source of the keplerian elements: AFSPC